Weather History for EBLB - December, 2012

Change the Weather History Date:

Friday, December 7, 2012

  Actual Average Record
Temperature  
Mean Temperature 26 °F -  
Max Temperature 27 °F 37 °F 50 °F (2007)
Min Temperature 24 °F 31 °F 23 °F (1997)
Degree Days  
Heating Degree Days 40    
Moisture  
Dew Point 24 °F    
Average Humidity 92    
Maximum Humidity 100    
Minimum Humidity 83    
Precipitation  
Precipitation 0.00 in - - ()
Sea Level Pressure  
Sea Level Pressure 29.57 in    
Wind  
Wind Speed 11 mph ()    
Max Wind Speed 17 mph    
Max Gust Speed 28 mph    
Visibility 3.6 miles    
Events Fog , Snow    
Averages and records for this station are not official NWS values.
T = Trace of Precipitation, MM = Missing Value Source: Averaged Metar Reports

Daily Weather History Graph

Daily Weather History Graph

Search for Another Location

Airport or City:

Trip Planner

Search our weather history database for the weather conditions in past years. The results will help you decide how hot, cold, wet, or windy it might be!

Date:

Astronomy

Dec. 07, 2012 Rise Set
Actual Time 8:21 AM CET 4:31 PM CET
Civil Twilight 7:43 AM CET 5:10 PM CET
Nautical Twilight 7:01 AM CET 5:51 PM CET
Astronomical Twilight 6:22 AM CET 6:31 PM CET
Moon 12:46 AM CET (12/7) 12:54 PM CET (12/7)
Length of Visible Light 9h 26m
Length of Day
8h 09m
Last Quarter, 41% of the Moon is Illuminated
Dec 7
Last Quarter
Dec 13
New
Dec 20
First Quarter
Dec 28
Full
Jan 5
Last Quarter

Hourly Weather History & Observations

Time (CET) Temp. Windchill Dew Point Humidity Pressure Visibility Wind Dir Wind Speed Gust Speed Precip Events Conditions
12:25 AM 26.6 °F 16.2 °F 23.0 °F 86% 29.83 in 6.2 mi SSW 11.5 mph - N/A   Mostly Cloudy
1:00 AM 25 °F - 23 °F 87% 29.93 in 9 mi SSW 11.2 mph - -   Scattered Clouds
1:25 AM 24.8 °F 13.4 °F 21.2 °F 86% 29.80 in 6.2 mi South 12.7 mph - N/A   Mostly Cloudy
1:30 AM 24.8 °F 14.0 °F 23.0 °F 93% 29.77 in 6.2 mi South 11.5 mph - N/A   Mostly Cloudy
2:25 AM 24.8 °F 12.4 °F 23.0 °F 93% 29.74 in 6.2 mi South 15.0 mph - N/A   Mostly Cloudy
3:25 AM 26.6 °F 13.8 °F 23.0 °F 86% 29.68 in 6.2 mi South 17.3 mph - N/A   Mostly Cloudy
3:50 AM 26.6 °F 14.7 °F 23.0 °F 86% 29.68 in 6.2 mi South 15.0 mph - N/A   Mostly Cloudy
3:56 AM 26.6 °F 15.2 °F 23.0 °F 86% 29.65 in 6.2 mi South 13.8 mph - N/A   Mostly Cloudy
4:00 AM 26 °F - 23 °F 83% 29.78 in 10 mi South 13.4 mph - - Snow Snow
4:25 AM 26.6 °F 14.7 °F 23.0 °F 86% 29.65 in 6.2 mi South 15.0 mph - N/A   Mostly Cloudy
4:35 AM 26.6 °F 14.7 °F 23.0 °F 86% 29.62 in 6.2 mi South 15.0 mph - N/A   Mostly Cloudy
4:45 AM 26.6 °F 14.7 °F 23.0 °F 86% 29.62 in 6.2 mi South 15.0 mph - N/A   Mostly Cloudy
5:25 AM 26.6 °F 14.3 °F 23.0 °F 86% 29.59 in 6.2 mi South 16.1 mph 27.6 mph N/A   Mostly Cloudy
6:25 AM 24.8 °F 12.4 °F 23.0 °F 93% 29.56 in 6.2 mi South 15.0 mph - N/A   Mostly Cloudy
6:30 AM 24.8 °F 11.9 °F 23.0 °F 93% 29.56 in 4.3 mi South 16.1 mph - N/A   Mostly Cloudy
6:36 AM 24.8 °F 11.9 °F 23.0 °F 93% 29.53 in - South 16.1 mph - N/A   Mostly Cloudy
6:42 AM 24.8 °F 11.9 °F 21.2 °F 86% 29.53 in 2.2 mi South 16.1 mph 27.6 mph N/A   Mostly Cloudy
7:00 AM 25 °F - 22 °F 85% 29.65 in 2 mi South 15.7 mph - -   Mist
7:19 AM 24.8 °F 12.9 °F 23.0 °F 93% 29.53 in 0.9 mi South 13.8 mph - N/A Snow Snow
7:25 AM 24.8 °F 12.4 °F 23.0 °F 93% 29.53 in 0.7 mi South 15.0 mph - N/A Snow Snow
7:29 AM 24.8 °F 12.9 °F 23.0 °F 93% 29.50 in 0.4 mi South 13.8 mph - N/A Fog , Snow Snow
8:25 AM 24.8 °F 12.9 °F 23.0 °F 93% 29.50 in 0.2 mi South 13.8 mph - N/A Fog , Snow Snow
9:09 AM 24.8 °F 11.9 °F 23.0 °F 93% 29.50 in 0.5 mi South 16.1 mph - N/A Fog , Snow Snow
9:19 AM 24.8 °F 12.4 °F 23.0 °F 93% 29.50 in 0.4 mi South 15.0 mph - N/A Fog , Snow Snow
9:25 AM 24.8 °F 11.9 °F 23.0 °F 93% 29.50 in 0.3 mi South 16.1 mph - N/A Fog , Snow Snow
9:52 AM 24.8 °F 12.4 °F 23.0 °F 93% 29.47 in 1.0 mi South 15.0 mph - N/A Snow Snow
10:00 AM 26 °F - 23 °F 83% 29.59 in 1 mi South 15.7 mph - - Snow Snow
10:01 AM 24.8 °F 12.4 °F 23.0 °F 93% 29.47 in 0.9 mi South 15.0 mph - N/A Fog , Snow Snow
10:08 AM 24.8 °F 12.4 °F 23.0 °F 93% 29.47 in 0.4 mi South 15.0 mph - N/A Fog , Snow Snow
10:25 AM 26.6 °F 15.7 °F 23.0 °F 86% 29.47 in 0.3 mi South 12.7 mph - N/A Fog , Snow Snow
11:25 AM 26.6 °F 15.7 °F 23.0 °F 86% 29.44 in 0.4 mi South 12.7 mph - N/A Fog , Snow Snow
12:25 PM 26.6 °F 16.2 °F 24.8 °F 93% 29.44 in 0.4 mi South 11.5 mph - N/A Fog , Snow Snow
12:47 PM 26.6 °F 16.8 °F 24.8 °F 93% 29.44 in 0.9 mi South 10.4 mph - N/A Fog , Snow Snow
1:00 PM 26 °F - 24 °F 88% 29.55 in 1 mi South 11.2 mph - - Snow Light Snow
1:10 PM 26.6 °F 17.5 °F 24.8 °F 93% 29.44 in - South 9.2 mph - N/A Snow Light Snow
1:25 PM 26.6 °F 16.8 °F 24.8 °F 93% 29.44 in - South 10.4 mph - N/A Snow Light Snow
2:25 PM 28.4 °F 19.7 °F 24.8 °F 86% 29.44 in 2.5 mi South 9.2 mph - N/A Snow Light Snow Grains
3:25 PM 26.6 °F 17.5 °F 26.6 °F 100% 29.44 in 5.6 mi SSW 9.2 mph - N/A   Overcast
3:40 PM 26.6 °F 18.2 °F 26.6 °F 100% 29.44 in 5.0 mi South 8.1 mph - N/A   Overcast
4:00 PM 27 °F - 26 °F 97% 29.55 in 6 mi South 6.7 mph - -   Partly Cloudy
4:15 PM 26.6 °F 17.5 °F 26.6 °F 100% 29.44 in 2.5 mi South 9.2 mph - N/A Snow Light Snow
4:25 PM 26.6 °F 18.2 °F 26.6 °F 100% 29.44 in 2.5 mi South 8.1 mph - N/A Snow Light Snow
4:55 PM 26.6 °F 19.1 °F 26.6 °F 100% 29.47 in 4.3 mi South 6.9 mph - N/A   Overcast
5:20 PM 26.6 °F 20.0 °F 26.6 °F 100% 29.50 in 4.3 mi South 5.8 mph - N/A   Overcast
5:25 PM 26.6 °F 20.0 °F 26.6 °F 100% 29.50 in 4.3 mi South 5.8 mph - N/A   Mostly Cloudy
6:25 PM 26.6 °F 21.2 °F 26.6 °F 100% 29.53 in 5.0 mi South 4.6 mph - N/A   Overcast
7:00 PM 27 °F - 26 °F 96% 29.65 in 4 mi South 4.5 mph - -   Clear
7:25 PM 26.6 °F 22.6 °F 26.6 °F 100% 29.56 in 4.3 mi Variable 3.5 mph - N/A   Overcast
8:25 PM 26.6 °F 21.2 °F 26.6 °F 100% 29.59 in 4.3 mi South 4.6 mph - N/A   Overcast
9:25 PM 26.6 °F - 26.6 °F 100% 29.62 in 4.3 mi Variable 1.2 mph - N/A   Overcast
10:00 PM 27 °F - 26 °F 94% 29.73 in 5 mi 2.2 mph - - Snow Light Snow Showers
10:25 PM 26.6 °F - 24.8 °F 93% 29.65 in 3.1 mi Variable 2.3 mph - N/A   Overcast
11:20 PM 26.6 °F - 24.8 °F 93% 29.68 in 3.1 mi Variable 2.3 mph - N/A   Overcast
11:25 PM 26.6 °F - 26.6 °F 100% 29.68 in 3.1 mi Variable 1.2 mph - N/A   Mostly Cloudy
11:26 PM 26.6 °F - 26.6 °F 100% 29.68 in 3.1 mi Variable 2.3 mph - N/A   Mostly Cloudy